WetterOnline ( https://www.wetteronline.ch )

Wetter aktuell Saarburg

Aktuelles Wetter: Trier/Petrisberg (273m)

6-stündlich | Neueste Meldungen
Ortszeit Temperatur Wetter
Di, 22.10. 8:00 7.4° C Nebel
Di, 22.10. 2:00 9.1° C bewölkt
Mo, 21.10. 20:00 10.9° C bewölkt
Mo, 21.10. 14:00 13.6° C bewölkt
Mo, 21.10. 8:00 13.9° C wolkig
Mo, 21.10. 2:00 13.4° C bewölkt
So, 20.10. 20:00 13.5° C bewölkt
So, 20.10. 14:00 13.6° C bedeckt
Ortszeit Temperatur Wetter
Di, 22.10. 12:30 11.5° C bedeckt
Di, 22.10. 12:20 11.5° C bedeckt
Di, 22.10. 12:10 11.3° C bedeckt
Di, 22.10. 12:00 10.6° C bedeckt
Di, 22.10. 11:50 10.6° C bedeckt
Di, 22.10. 11:40 10.4° C bedeckt
Di, 22.10. 11:30 10.5° C bewölkt
Di, 22.10. 11:00 9.7° C bewölkt
Di, 22.10. 10:30 9.0° C bedeckt
Di, 22.10. 10:00 8.3° C bedeckt
Di, 22.10. 9:30 7.9° C bewölkt
Ortszeit Relative Feuchte Sichtweite
Di, 22.10. 8:00 97% 0.4 km
Di, 22.10. 2:00 93% 70 km
Mo, 21.10. 20:00 82% 70 km
Mo, 21.10. 14:00 74% 70 km
Mo, 21.10. 8:00 89% 70 km
Mo, 21.10. 2:00 94% 70 km
So, 20.10. 20:00 97% 5.0 km
So, 20.10. 14:00 93% 45 km
Ortszeit Relative Feuchte Sichtweite
Di, 22.10. 12:30 79% 70 km
Di, 22.10. 12:20 79% -
Di, 22.10. 12:10 82% -
Di, 22.10. 12:00 85% 45 km
Di, 22.10. 11:50 85% -
Di, 22.10. 11:40 87% -
Di, 22.10. 11:30 87% 40 km
Di, 22.10. 11:00 91% 30 km
Di, 22.10. 10:30 94% 26 km
Di, 22.10. 10:00 98% 3.6 km
Di, 22.10. 9:30 97% 17 km
Ortszeit Niederschlagsmenge Niederschlagsart
Di, 22.10. 8:00 0.0 l/m2 in 12 Std. -
Di, 22.10. 2:00 0.0 l/m2 in 6 Std. -
Mo, 21.10. 20:00 0.0 l/m2 in 12 Std. -
Mo, 21.10. 14:00 0.0 l/m2 in 6 Std. -
Mo, 21.10. 8:00 7 l/m2 in 12 Std. Regen
Mo, 21.10. 2:00 7 l/m2 in 6 Std. Regen
So, 20.10. 20:00 6 l/m2 in 12 Std. Regen
So, 20.10. 14:00 5 l/m2 in 6 Std. Regen
Ortszeit Niederschlagsmenge Niederschlagsart
Di, 22.10. 12:30 0.0 l/m2 in 1 Std. -
Di, 22.10. 12:20 keine Meldung -
Di, 22.10. 12:10 keine Meldung -
Di, 22.10. 12:00 0.0 l/m2 in 1 Std. -
Di, 22.10. 11:50 keine Meldung -
Di, 22.10. 11:40 keine Meldung -
Di, 22.10. 11:30 0.0 l/m2 in 1 Std. -
Di, 22.10. 11:00 0.0 l/m2 in 1 Std. -
Di, 22.10. 10:30 0.0 l/m2 in 1 Std. -
Di, 22.10. 10:00 0.0 l/m2 in 1 Std. -
Di, 22.10. 9:30 0.0 l/m2 in 1 Std. -
Ortszeit Stärke Spitze Richtung
km/h Bft. km/h Grad Sektor
Di, 22.10. 8:00 4 1 11 210° SW
Di, 22.10. 2:00 7 2 14 230° SW
Mo, 21.10. 20:00 4 1 36 220° SW
Mo, 21.10. 14:00 24 4 44 210° SW
Mo, 21.10. 8:00 28 4 37 180° S
Mo, 21.10. 2:00 11 2 29 180° S
So, 20.10. 20:00 7 2 18 60° NO
So, 20.10. 14:00 7 2 25 320° NW
Ortszeit Stärke Spitze Richtung
km/h Bft. km/h Grad Sektor
Di, 22.10. 12:30 2 1 9 330° NW
Di, 22.10. 12:20 2 1 - 330° NW
Di, 22.10. 12:10 6 1 - 350° N
Di, 22.10. 12:00 7 2 11 330° NW
Di, 22.10. 11:50 7 2 - 330° NW
Di, 22.10. 11:40 6 1 - 340° N
Di, 22.10. 11:30 0 0 7 - -
Di, 22.10. 11:00 4 1 11 340° N
Di, 22.10. 10:30 4 1 4 220° SW
Di, 22.10. 10:00 4 1 7 90° O
Di, 22.10. 9:30 4 1 7 320° NW
Ortszeit Untergrenze Bedeckung Gattung
total tief tief mittel hoch
Di, 22.10. 8:00 <30 m 8/8 0/8 - - -
Di, 22.10. 2:00 3600 m 7/8 7/8 - - -
Mo, 21.10. 20:00 840 m 8/8 4/8 - - -
Mo, 21.10. 14:00 570 m 7/8 6/8 - - -
Mo, 21.10. 8:00 1050 m 5/8 5/8 - - -
Mo, 21.10. 2:00 5400 m 8/8 7/8 - - -
So, 20.10. 20:00 2100 m 8/8 7/8 - - -
So, 20.10. 14:00 1800 m 8/8 8/8 - - -
Ortszeit Bedeckungsgrad in Achtel und Wolkenuntergrenze
Di, 22.10. 12:30 8(3300m)
Di, 22.10. 12:20 8(3300m)
Di, 22.10. 12:10 8(3000m)
Di, 22.10. 12:00 8(3000m)
Di, 22.10. 11:50 8(3000m)
Di, 22.10. 11:40 8(3000m)
Di, 22.10. 11:30 5(3000m) 8(8100m)
Di, 22.10. 11:00 7(3000m) 7(7500m)
Di, 22.10. 10:30 8(3000m)
Di, 22.10. 10:00 7(<30m) 8(2700m)
Di, 22.10. 9:30 6(<30m) 8(3000m)
Ortszeit Luftdruck NN (hPa) Tendenz (hPa in 3 Std.)
Di, 22.10. 8:00 1025 + 0,5
Di, 22.10. 2:00 1024 + 0,5
Mo, 21.10. 20:00 1022 + 1,5
Mo, 21.10. 14:00 1020 + 2,5
Mo, 21.10. 8:00 1014 + 1,6
Mo, 21.10. 2:00 1010 - 1,1
So, 20.10. 20:00 1007 + 0,8
So, 20.10. 14:00 1007 - 0,1
Ortszeit Luftdruck NN (hPa) Tendenz (hPa in 3 Std.)
Di, 22.10. 12:30 1026 + 0,9
Di, 22.10. 12:20 1026 keine Meldung
Di, 22.10. 12:10 1026 keine Meldung
Di, 22.10. 12:00 1026 + 0,8
Di, 22.10. 11:50 1026 keine Meldung
Di, 22.10. 11:40 1026 keine Meldung
Di, 22.10. 11:30 1026 + 1,3
Di, 22.10. 11:00 1026 + 1,6
Di, 22.10. 10:30 1026 + 1,9
Di, 22.10. 10:00 1026 + 1,5
Di, 22.10. 9:30 1025 + 1,3
Ortszeit Schneehöhe (cm)
Di, 22.10. 8:00 0
Di, 22.10. 2:00 0
Mo, 21.10. 20:00 0
Mo, 21.10. 14:00 0
Mo, 21.10. 8:00 0
Mo, 21.10. 2:00 0
So, 20.10. 20:00 0
So, 20.10. 14:00 0
Ortszeit Schneehöhe (cm)
Di, 22.10. 12:30 0
Di, 22.10. 12:20 0
Di, 22.10. 12:10 0
Di, 22.10. 12:00 0
Di, 22.10. 11:50 0
Di, 22.10. 11:40 0
Di, 22.10. 11:30 0
Di, 22.10. 11:00 0
Di, 22.10. 10:30 0
Di, 22.10. 10:00 0
Di, 22.10. 9:30 0
Link zu dieser Seite / Seite empfehlen

Das Wetter in ...